Location: Unspecified
(35.7250°N, 0.0000°E)
Time: 06:12:36
(UTC+00:00)

Tiros 1 - Pass Details

Date: 25 June 2019
Orbit: 630 x 664 km, 48.4° (Epoch: 15 July)

Event Time Altitude Azimuth Distance (km) Brightness Sun altitude
Rises 02:24:17 0° 309° (NW) 2,935 10.6 -22.0°
Reaches altitude 10° 02:27:04 10° 325° (NW) 2,020 9.9 -21.7°
Maximum altitude 02:30:43 22° 16° (NNE) 1,375 9.6 -21.3°
Drops below altitude 10° 02:34:21 10° 68° (ENE) 2,007 10.5 -20.8°
Sets 02:37:06 0° 84° (E) 2,912 11.2 -20.5°
